St. Cloud, MN

7:38 AM CDT on August 21, 2017 (GMT -0500)
Saint Cloud Regional

Weather History for KSTC - September, 2013

Change the Weather History Date:

Saturday, September 14, 2013

  Actual Average Record
Temperature  
Mean Temperature 57 °F 59 °F  
Max Temperature 69 °F 71 °F 95 °F (1939)
Min Temperature 45 °F 48 °F 31 °F (1996)
Degree Days  
Heating Degree Days 8 7  
Month to date heating degree days 40 69  
Since 1 July heating degree days 89 127  
Cooling Degree Days 0 1  
Month to date cooling degree days 60 24  
Year to date cooling degree days 564 453  
Growing Degree Days 6 (Base 50)    
Moisture  
Dew Point 51 °F    
Average Humidity 74    
Maximum Humidity 100    
Minimum Humidity 48    
Precipitation  
Precipitation 1.23 in 0.11 in 1.75 in (1914)
Month to date precipitation 1.33 1.76  
Year to date precipitation 21.66 21.34  
Snow  
Snow 0.00 in 0.00 in 0.00 in ()
Month to date snowfall 0.0 0.0  
Since 1 July snowfall 0.0 0.0  
Since 1 September snowfall 0.0 0.0  
Snow Depth 0.00 in    
Sea Level Pressure  
Sea Level Pressure 29.97 in    
Wind  
Wind Speed 5 mph (ESE)    
Max Wind Speed 15 mph    
Max Gust Speed 18 mph    
Visibility 5 miles    
Events Rain    
T = Trace of Precipitation, MM = Missing Value Source: NWS Daily Summary

Daily Weather History Graph

Daily Weather History Graph

Search for Another Location

Airport or City:

Trip Planner

Search our weather history database for the weather conditions in past years. The results will help you decide how hot, cold, wet, or windy it might be!

Date:

Astronomy

Sep. 14, 2013 Rise Set
Actual Time 6:53 AM CDT 7:28 PM CDT
Civil Twilight 6:23 AM CDT 7:58 PM CDT
Nautical Twilight 5:48 AM CDT 8:33 PM CDT
Astronomical Twilight 5:11 AM CDT 9:10 PM CDT
Moon 4:21 PM CDT (9/14) 1:14 AM CDT (9/14)
Length of Visible Light 13h 34m
Length of Day
12h 35m
Waxing Gibbous, 72% of the Moon is Illuminated
Sep 14
Waxing Gibbous
Sep 19
Full
Sep 26
Last Quarter
Oct 4
New
Oct 11
First Quarter

Hourly Weather History & Observations

Time (CDT) Temp. Windchill Dew Point Humidity Pressure Visibility Wind Dir Wind Speed Gust Speed Precip Events Conditions
12:53 AM 48.0 °F - 44.1 °F 86% 30.10 in 10.0 mi SSE 4.6 mph - N/A   Clear
1:53 AM 48.0 °F - 44.1 °F 86% 30.10 in 10.0 mi SSE 5.8 mph - N/A   Clear
2:53 AM 46.9 °F - 44.1 °F 90% 30.08 in 10.0 mi SSE 6.9 mph - N/A   Clear
3:53 AM 46.9 °F - 43.0 °F 86% 30.08 in 10.0 mi SSE 4.6 mph - N/A   Clear
4:53 AM 46.0 °F 44.8 °F 42.1 °F 86% 30.07 in 10.0 mi South 3.5 mph - N/A   Clear
5:53 AM 45.0 °F 42.6 °F 42.1 °F 90% 30.06 in 10.0 mi SSE 4.6 mph - N/A   Clear
6:53 AM 46.9 °F - 43.0 °F 86% 30.06 in 10.0 mi SSE 4.6 mph - N/A   Clear
7:53 AM 50.0 °F - 45.0 °F 83% 30.06 in 10.0 mi SSE 4.6 mph - N/A   Clear
8:53 AM 55.9 °F - 46.0 °F 69% 30.05 in 10.0 mi South 9.2 mph - N/A   Clear
9:53 AM 61.0 °F - 46.0 °F 58% 30.04 in 10.0 mi South 8.1 mph - N/A   Clear
10:53 AM 64.0 °F - 46.0 °F 52% 30.02 in 10.0 mi South 9.2 mph - N/A   Clear
11:53 AM 66.0 °F - 46.9 °F 50% 30.00 in 10.0 mi South 6.9 mph - N/A   Clear
12:53 PM 66.9 °F - 48.0 °F 51% 29.99 in 10.0 mi South 10.4 mph - N/A   Partly Cloudy
1:53 PM 64.9 °F - 51.1 °F 61% 29.98 in 10.0 mi SSW 8.1 mph - 0.00 in Rain Light Rain
2:53 PM 62.1 °F - 55.0 °F 78% 29.98 in 10.0 mi Calm Calm - 0.02 in Rain Light Rain
3:49 PM 60.8 °F - 55.4 °F 82% 29.95 in 2.0 mi South 3.5 mph - 0.06 in Rain Rain
3:53 PM 60.1 °F - 55.9 °F 86% 29.99 in 2.5 mi South 5.8 mph - 0.08 in Rain Rain
4:13 PM 57.2 °F - 53.6 °F 88% 29.93 in 1.2 mi SSW 5.8 mph - 0.10 in Rain Heavy Rain
4:28 PM 55.4 °F - 53.6 °F 94% 29.91 in 3.0 mi East 4.6 mph - 0.20 in Rain Rain
4:53 PM 55.9 °F - 54.0 °F 93% 29.96 in 3.0 mi Calm Calm - 0.27 in Rain Rain
5:09 PM 55.4 °F - 53.6 °F 94% 29.92 in 2.5 mi ENE 3.5 mph - 0.05 in Rain Rain
5:19 PM 55.4 °F - 53.6 °F 94% 29.91 in 1.5 mi ENE 4.6 mph - 0.11 in Rain Heavy Rain
5:53 PM 55.0 °F - 54.0 °F 96% 29.96 in 1.8 mi NNE 5.8 mph - 0.26 in Rain Rain
6:00 PM 55.4 °F - 53.6 °F 94% 29.93 in 2.5 mi NNE 5.8 mph - 0.02 in Rain Light Rain
6:07 PM 55.4 °F - 53.6 °F 94% 29.92 in 3.0 mi ENE 6.9 mph - 0.03 in Rain Rain
6:29 PM 53.6 °F - 53.6 °F 100% 29.92 in 2.0 mi ENE 6.9 mph - 0.07 in Rain Rain
6:53 PM 54.0 °F - 53.1 °F 97% 29.96 in 2.5 mi ENE 3.5 mph - 0.13 in Rain Rain
6:57 PM 53.6 °F - 53.6 °F 100% 29.92 in 1.5 mi ENE 4.6 mph - 0.02 in Rain Heavy Rain
7:16 PM 53.6 °F - 53.6 °F 100% 29.92 in 1.8 mi East 5.8 mph - 0.13 in Rain Rain
7:25 PM 53.6 °F - 53.6 °F 100% 29.92 in 3.0 mi East 5.8 mph - 0.16 in Rain Rain
7:53 PM 54.0 °F - 54.0 °F 100% 29.96 in 3.0 mi Variable 3.5 mph - 0.21 in Rain Rain
8:00 PM 53.6 °F - 53.6 °F 100% 29.92 in 3.0 mi Variable 5.8 mph - 0.03 in Rain Rain
8:14 PM 55.4 °F - 53.6 °F 94% 29.92 in 4.0 mi East 4.6 mph - 0.04 in Rain Light Rain
8:25 PM 55.4 °F - 53.6 °F 94% 29.92 in 5.0 mi East 5.8 mph - 0.05 in Rain Light Rain
8:36 PM 55.4 °F - 53.6 °F 94% 29.92 in 3.0 mi East 5.8 mph - 0.05 in Rain Light Rain
8:53 PM 55.0 °F - 54.0 °F 96% 29.95 in 4.0 mi East 6.9 mph - 0.07 in Rain Light Rain
9:02 PM 55.4 °F - 55.4 °F 100% 29.91 in 4.0 mi East 6.9 mph - 0.01 in Rain Rain
9:37 PM 55.4 °F - 55.4 °F 100% 29.91 in 5.0 mi ESE 10.4 mph - 0.04 in Rain Light Rain
9:53 PM 55.0 °F - 54.0 °F 96% 29.94 in 5.0 mi East 8.1 mph - 0.05 in Rain Light Rain
10:03 PM 55.4 °F - 53.6 °F 94% 29.91 in 8.0 mi ESE 8.1 mph - 0.00 in   Overcast
10:11 PM 55.4 °F - 53.6 °F 94% 29.91 in 9.0 mi East 6.9 mph - 0.00 in Rain Light Rain
10:53 PM 55.0 °F - 54.0 °F 96% 29.94 in 3.0 mi East 6.9 mph - 0.02 in Rain Light Rain
11:03 PM 55.4 °F - 53.6 °F 94% 29.92 in 2.5 mi East 5.8 mph - 0.02 in Rain Light Rain
11:21 PM 55.4 °F - 53.6 °F 94% 29.92 in 3.0 mi East 5.8 mph - 0.04 in Rain Light Rain
11:43 PM 55.4 °F - 53.6 °F 94% 29.92 in 2.5 mi East 3.5 mph - 0.06 in Rain Rain
11:49 PM 55.4 °F - 53.6 °F 94% 29.91 in 3.0 mi East 4.6 mph - 0.07 in Rain Light Rain
11:53 PM 55.0 °F - 54.0 °F 96% 29.94 in 3.0 mi East 4.6 mph - 0.08 in Rain Light Rain